Weather WX

World > North America > United States > Ohio

Mexico, Ohio Regional Weather

Lat: 40.99N, Lon: 83.19W
Wx Zone: OHZ027
Warning FLW WEATHER ALERT - FLASH FLOOD WATCH (More Info. Click Here) Warning
Feedback

Mexico, OH Regional Weather

Expires:201906201200;;781074
ASUS41 KCLE 201102
RWRCLE
OHIO REGIONAL WEATHER ROUNDUP
NATIONAL WEATHER SERVICE CLEVELAND, OH
700 AM EDT THU JUN 20 2019

NOTE: "FAIR" INDICATES FEW OR NO CLOUDS BELOW 12,000 FEET WITH NO
SIGNIFICANT WEATHER AND/OR OBSTRUCTIONS TO VISIBILITY.


OHZ001>008-015>018-024>027-034-035-043-044-201200-
   NORTHWEST OHIO
  
CITY           SKY/WX    TMP DP  RH WIND       PRES   REMARKS
DEFIANCE       CLOUDY    65  62  90 MISG      29.56S                  
FINDLAY        CLOUDY    67  64  90 E3        29.57R                  
TOLEDO EXPRESS HVY RAIN  65  62  90 E3        29.57S FOG              
TOLEDO EXEC    HVY RAIN  64  63  96 E6        29.58S FOG              
LIMA           LGT RAIN  68  66  93 S7        29.57S FOG              
$$


SKY/WX - Weather  TMP - Temperature  DP - Dew Point  RH - Relative Humidity
WIND - Wind Direction/Speed PRES - Barometric Pressure VSB - Visibility
WCI - Wind Chill Index E13G22 Wind - East Wind 13 mph/Gusts of 22 mph